CZ-4B DEB, 57397

Orbit data source: Space-Track

CZ-4B DEB, 57397 is space debris in SSO originally from a launch on Wed, 24 Oct 2018 UTC launched from the Taiyaun Space Center, China (TSC). Debris objects in space refer to the collection of defunct objects orbiting the Earth. Examples of debris include non-operational satellites, rocket bodies, and fragments generated from explosions, collisions, or faulty payload assembly.

Loading next visibility...
Identifier
57397, 2018-081Q
Orbit
SSO
Last TLE update
1 day ago
Origin
Manufacturer
Unknown
Mission
Spacecraft
Bus & Motor
Unknown
Mass
Unknown
Launch date (UTC)
2018-10-24 (7 years ago)
Launch vehicle
Unknown
Launch site
Taiyaun Space Center, China (TSC)
Object type
Payload
Rocket body
Debris
Shape & HBR
Unknown
Radar Cross Section
Small (<0.1 m²)

Expand to show TLE details & history

TLE from 1 day ago
0 CZ-4B DEB
1 57397U 18081Q   25185.49228342  .00000776  00000-0  21837-3 0  9998
2 57397  99.3834  75.7122 0198016 171.6235 188.8337 14.38376962116985
Epoch: 2025-07-04T11:48Z
TLE epoch observation values (Epoch: 2025-07-04T11:48:53.287Z)
Latitude
-0.00006°
Longitude
-24.25372°
Altitude
906.623 km
Speed
7.326 km/s
True Right ascension
05h 02m 50s
True Declination
0° 00' 00"
Sunlit
Object was in daylight at epoch
Visualization orbit readout
Latitude
57.66065°
Longitude
-37.69259°
Altitude
815.943 km
Speed
7.429 km/s
Apparent Right ascension
01h 16m 07s
Apparent Declination
15° 58' 01"
Sunlit
Object is in daylight
Visualization observer readout
Local Sidereal Time
11:05:34
Azimuth
324.632° NNW
Elevation
-26.388°
Doppler factor
1
Orbital elements
Apogee altitude
902.399 km
Perigee altitude
619.665 km
Semi-major axis
7,139.169 km
Eccentricity
0.0198
Inclination
99.3834°
RAAN
75.7122°
Arg. of periapsis
171.6235°
True anomaly
Unknown
Mean anomaly
188.8337°
Eccentric anomaly
Unknown
Mean motion
3.59809 °/min
Orbital period
100.05 mins
BSTAR
0.00021837
Loading maneuver chart data...
Loading SW <> Apogee altitude chart data...
Loading historical data...
Loading historical data...
Loading historical data...
Loading historical data...
Loading historical data...
Loading historical data...
Loading historical data...

CZ-4B DEB Visibility forecast

Observer location: undefined°, undefined°

Span
Click to sort rows by Start time (UTC) header in descending order
Start Az.
Max El. time (UTC)
Max El. Az.
Max El.
End time (UTC)
End Az.
4 mins2025-07-06 04:30:16.458Z61.753° ENE2025-07-06 04:32:16.458Z89.984° E14.118°2025-07-06 04:34:16.458Z119.937° SE
6 mins2025-07-06 06:09:16.458Z350.226° N2025-07-06 06:11:16.458Z305.527° NW34.765°2025-07-06 06:15:16.458Z219.589° SW
7 mins2025-07-06 15:43:16.458Z117.44° SE2025-07-06 15:46:16.458Z76.734° E26.193°2025-07-06 15:50:16.458Z14.664° NNE
8 mins2025-07-06 17:22:16.458Z206.953° SW2025-07-06 17:25:16.458Z256.383° W30.614°2025-07-06 17:30:16.458Z327.073° NNW
|